Regional Weather Roundup
Issued by NWS

Home | Current Version | Previous Version | Text Only | Print | Product List | Glossary Off
Versions: 1 2 3 4 5 6 7 8 9 10 11 12 13 14 15 16 17 18 19 20 21 22 23 24 25 26 27 28 29 30 31 32 33 34 35 36 37 38 39 40 41 42 43 44 45 46 47 48 49 50

000
ASUS43 KBIS 170010
RWRND

NORTH DAKOTA REGIONAL WEATHER ROUNDUP
NATIONAL WEATHER SERVICE BISMARCK ND
700 PM CDT WED APR 16 2014

NOTE: "FAIR" INDICATES FEW OR NO CLOUDS BELOW 12,000 FEET WITH NO
SIGNIFICANT WEATHER AND/OR OBSTRUCTIONS TO VISIBILITY.


NDZ001>003-009>011-017-170100-
NORTHWEST NORTH DAKOTA

CITY           SKY/WX    TMP DP  RH WIND       PRES   REMARKS
WILLISTON        N/A    N/A N/A N/A MISG      30.23R
MINOT          CLOUDY    33  17  51 NE13      30.23R
MINOT AFB      CLOUDY    33  18  55 E9        30.23R
$$

NDZ018>021-031>035-040>046-170100-
SOUTHWEST NORTH DAKOTA

CITY           SKY/WX    TMP DP  RH WIND       PRES   REMARKS
BISMARCK       CLOUDY    37  15  40 NE10      30.19R
6HR MIN TEMP:  29; 6HR MAX TEMP:  37;

DICKINSON      CLOUDY    29  20  69 E13       30.14R WCI  19
GARRISON         N/A     33  17  51 NE8       30.20R
6HR MIN TEMP:  26; 6HR MAX TEMP:  33; 6HR PCP:  0.01;

HETTINGER ARPT CLOUDY    31  22  69 NE10      30.14R
$$

NDZ004>008-012>016-024-026-027-054-170100-
NORTHEAST NORTH DAKOTA

CITY           SKY/WX    TMP DP  RH WIND       PRES   REMARKS
GRAND FORKS    SUNNY     38   9  30 NE20      30.18R
GRND FRKS AFB  SUNNY     37   5  26 NE16      30.23R
DEVILS LAKE    SUNNY     36  12  38 NE17G24   30.23R
$$

NDZ022-023-025-028>030-036>039-047>053-170100-
SOUTHEAST NORTH DAKOTA

CITY           SKY/WX    TMP DP  RH WIND       PRES   REMARKS
FARGO          MOSUNNY   38  23  55 NE10      30.15R
6HR MIN TEMP:  32; 6HR MAX TEMP:  38;

JAMESTOWN      SUNNY     38  16  40 NE17      30.15R
$$




USA.gov is the U.S. government's official web portal to all federal, state and local government web resources and services.